COSMOS 735

Satellite information

Favourite Embed

Satellite Type and Status

PAYLOADIN ORBIT

Key statistics

Satellite COSMOS 735 at a glance.

Uptime

18304

Days in orbit

Revolutions

≈ 12.5

Per day

Orbit

LEO

Low Earth Orbit

Inclination

74.0

Latest

Satellite identification and parameters

Extended collection of information and parameters for COSMOS 735.

Object identification

Identified? True

Debris? False

Object name: COSMOS 735

International designator: 1975-045D

Object number (NORAD): 7824

Object ID (CCSDS): 7824

Country: COMMONWEALTH OF INDEPENDENT STATES (CIS)

Current information (Y/N): Y

RCS size: MEDIUM

Orbital parameters

Period: 115.259 minutes

Inclination: 74.0177 deg

SMA: 7845.297 km

Apoapsis: 1473.03 km

Periapsis: 1461.295 km

RAAN: 73.0051 deg

Eccentricy: 0.0007479

Argument of periapsis: 64.9358 deg

Mean anomaly: 308.2125 deg

Mean motion: 12.49363046 rev/day

Mean motion (dot): -0.00000006 rev/day2

B* drag term: 0.000068212 1/REarth

Two-line elements (TLE)

Creation date: July 8, 2025, 2:27 a.m.

Reference frame: TEME

Reference center: EARTH

Epoch: July 7, 2025, 10:53 p.m. UTC

TLE line 0: 0 COSMOS 735

TLE line 1: 1 07824U 75045D 25188.95359552 -.00000006 00000-0 68212-4 0 9999

TLE line 2: 2 07824 74.0177 73.0051 0007479 64.9358 308.2125 12.49363046285595

Live tracking on map

Real-time ground track for satellite COSMOS 735.

In-orbit conjunctions

There are no conjunctions computed for COSMOS 735, at the moment. Check back to stay up to date, as we update our databases every day.

Go to all conjunctions

Associated space launch

Military communications satellites

COSMOS 735 was lifted into orbit during the mission ‘Kosmos-3M | Strela-1M 89-96’, on board a Kosmos-3M space rocket.

The launch took place on May 28, 1975, 12:25 a.m. from 132/1 (132L).

For more information about the launch, click the button.

Launch to space Kosmos-3M | Strela-1M 89-96
Kosmos-3M | Strela-1M 89-96

Agency: N/A

Status: Launch Successful

Launch date: May 28, 1975, 12:25 a.m. UTC

Rocket: Kosmos-3M

Launch pad: 132/1 (132L)

Location: Plesetsk Cosmodrome, Russian Federation

...

Latest news about this satellite

There are no fresh news available about this satellite. Check back as we update our databases every day.


Newsletter sign-up

Weekly statistics, charts and insights to help you stay on top of the space industry.